CW8081 Weather Reports


time (UTC)temp
F
wind
direction
speed
knots
gust
knots
rain 1hr
in
rain 24hr
in
rain mn
in
humidity
%
barometer
mb
20260901070105 82 267 0.0 0.0 0.00 0.00 0.00 70 1014.5
20260901064604 82 293 0.0 0.0 0.00 0.00 0.00 69 1014.4
20260901064104 82 349 0.0 0.0 0.00 0.00 0.00 69 1014.4
20260901063103 80 355 0.0 0.0 0.00 0.00 0.00 71 1014.4
20260901061604 79 355 0.0 0.0 0.00 0.00 0.00 72 1014.4
20260901060105 78 355 0.0 0.0 0.00 0.00 0.00 74 1014.6
20260901054604 78 355 0.0 0.0 0.00 0.00 0.00 76 1014.5
20260901053603 77 348 0.0 0.0 0.00 0.00 0.00 76 1014.5
20260901051604 77 330 0.0 0.0 0.00 0.00 0.00 78 1014.5
20260901051104 76 341 0.0 0.0 0.00 0.00 0.00 79 1014.3
20260901043604 74 0 0.0 0.0 0.00 0.00 0.00 77 1013.6
20260901041604 74 198 0.0 0.0 0.00 0.00 0.00 77 1013.6
20260901031104 74 0 0.0 0.0 0.00 0.00 0.00 78 1013.6
20260901030605 74 0 0.0 0.0 0.00 0.00 0.00 78 1013.6
20260901021604 74 0 0.0 0.0 0.00 0.00 0.00 77 1013.8
20260901021103 74 0 0.0 0.0 0.00 0.00 0.00 77 1013.8
20260901020603 74 0 0.0 0.0 0.00 0.00 0.00 77 1013.8
20260901014104 75 0 0.0 0.0 0.00 0.00 0.00 77 1014.3
20260901013103 75 0 0.0 0.0 0.00 0.00 0.00 77 1014.3
20260901004604 75 0 0.0 0.0 0.00 0.00 0.00 74 1014.1
20260901004103 75 0 0.0 0.0 0.00 0.00 0.00 74 1014.1
20260901003104 75 0 0.0 0.0 0.00 0.00 0.00 74 1014.1
20260831234603 77 0 0.0 0.0 0.00 0.00 0.00 74 1014.1
20260831233104 77 0 0.0 0.0 0.00 0.00 0.00 74 1014.1
20260831231604 77 0 0.0 0.0 0.00 0.00 0.00 74 1014.4
20260831230104 77 359 0.0 0.0 0.00 0.00 0.00 74 1014.4
20260831223104 78 0 0.0 0.0 0.00 0.00 0.00 72 1014.5
20260831221604 78 0 0.0 0.0 0.00 0.00 0.00 72 1014.5
20260831213604 78 0 0.0 0.0 0.00 0.00 0.00 71 1014.7
20260831213104 78 0 0.0 0.0 0.00 0.00 0.00 71 1014.7
20260831211604 78 0 0.0 0.0 0.00 0.00 0.00 71 1014.7
20260831210104 79 0 0.0 0.0 0.00 0.00 0.00 71 1014.7
20260831204604 79 0 0.0 0.0 0.00 0.00 0.00 71 1014.7
20260831203603 79 0 0.0 0.0 0.00 0.00 0.00 71 1014.3
20260831200104 79 0 0.0 0.0 0.00 0.00 0.00 71 1014.3
20260831194604 80 0 0.0 0.0 0.00 0.00 0.00 71 1014.3
20260831191604 80 0 0.0 0.0 0.00 0.00 0.00 71 1014.1
20260831191104 80 0 0.0 0.0 0.00 0.00 0.00 71 1014.1
20260831190603 80 0 0.0 0.0 0.00 0.00 0.00 70 1014.1
20260831184104 81 0 0.0 0.0 0.00 0.00 0.00 69 1014.1
20260831183104 81 0 0.0 0.0 0.00 0.00 0.00 69 1014.1
20260831181603 81 0 0.0 0.0 0.00 0.00 0.00 68 1013.6
20260831174104 82 0 0.0 0.0 0.00 0.00 0.00 67 1013.6
20260831173604 82 0 0.0 0.0 0.00 0.00 0.00 67 1013.3
20260831171604 82 0 0.0 0.0 0.00 0.00 0.00 67 1013.3
20260831160105 86 0 0.0 0.0 0.00 0.00 0.00 63 1013.0
20260831154104 87 0 0.0 0.0 0.00 0.00 0.00 62 1013.0
20260831153604 87 0 0.0 0.0 0.00 0.00 0.00 62 1013.0
20260831151604 89 0 0.0 0.0 0.00 0.00 0.00 59 1013.1
20260831150603 89 0 0.0 0.0 0.00 0.00 0.00 56 1013.1
20260831143603 89 0 0.0 0.0 0.00 0.00 0.00 55 1013.2
20260831143104 89 0 0.0 0.0 0.00 0.00 0.00 55 1013.2
20260831141104 90 0 0.0 0.0 0.00 0.00 0.00 53 1013.2
20260831140604 90 0 0.0 0.0 0.00 0.00 0.00 55 1013.3
20260831140105 90 0 0.0 0.0 0.00 0.00 0.00 54 1013.3
20260831134104 90 0 0.0 0.0 0.00 0.00 0.00 54 1013.6
20260831133604 90 0 0.0 0.0 0.00 0.00 0.00 54 1013.6
20260831133103 90 0 0.0 0.0 0.00 0.00 0.00 52 1013.6
20260831131603 90 0 0.0 0.0 0.00 0.00 0.00 52 1013.6
20260831131104 90 0 0.0 0.0 0.00 0.00 0.00 52 1013.6
20260831130105 91 356 0.0 0.0 0.00 0.00 0.00 52 1013.7
20260831124104 90 358 0.0 0.0 0.00 0.00 0.00 53 1013.9
20260831123604 90 359 0.0 0.0 0.00 0.00 0.00 52 1014.0
20260831123104 90 0 0.0 0.0 0.00 0.00 0.00 52 1014.0
20260831120604 90 0 0.0 0.0 0.00 0.00 0.00 54 1014.3
20260831120105 90 357 0.0 0.0 0.00 0.00 0.00 54 1014.6
20260831114604 89 0 0.0 0.0 0.00 0.00 0.00 55 1014.6
20260831113604 89 0 0.0 0.0 0.00 0.00 0.00 56 1014.7
20260831110604 89 0 0.0 0.0 0.00 0.00 0.00 56 1014.7
20260831110104 89 0 0.0 0.0 0.00 0.00 0.00 57 1014.7
20260831103104 88 343 0.0 0.0 0.00 0.00 0.00 59 1015.0
20260831101104 87 354 0.0 0.0 0.00 0.00 0.00 57 1015.7
20260831100604 87 0 0.0 0.0 0.00 0.00 0.00 56 1015.7
20260831094603 86 0 0.0 0.0 0.00 0.00 0.00 61 1015.7
20260831094104 86 0 0.0 0.0 0.00 0.00 0.00 63 1015.7
20260831093604 86 0 0.0 0.0 0.00 0.00 0.00 63 1015.7
20260831093104 86 345 0.0 0.0 0.00 0.00 0.00 67 1015.7
20260831091104 85 347 0.0 0.0 0.00 0.00 0.00 68 1015.7
20260831090603 85 0 0.0 0.0 0.00 0.00 0.00 67 1015.8
20260831090104 85 315 0.0 0.0 0.00 0.00 0.00 67 1015.8
20260831084603 85 358 0.0 0.0 0.00 0.00 0.00 67 1015.8
20260831084104 85 354 0.0 0.0 0.00 0.00 0.00 66 1015.8
20260831083604 85 268 0.0 0.0 0.00 0.00 0.00 67 1015.8
20260831081603 85 354 0.0 0.0 0.00 0.00 0.00 64 1015.8
20260831080105 84 0 0.0 0.0 0.00 0.00 0.00 65 1015.7
20260831074103 84 0 0.0 0.0 0.00 0.00 0.00 66 1015.7
20260831071103 83 0 0.0 0.0 0.00 0.00 0.00 67 1015.4
20260831070603 83 0 0.0 0.0 0.00 0.00 0.00 67 1015.4